Moultrie, GA

7:21 PM EDT on July 25, 2017 (GMT -0400)
Moultrie Municipal

Weather History for KMGR - October, 2011

Change the Weather History Date:

Thursday, October 6, 2011

  Actual Average (KMUL) Record (KMUL)
Temperature  
Mean Temperature 70 °F -  
Max Temperature 82 °F 82 °F 97 °F (1951)
Min Temperature 57 °F 58 °F 42 °F (1980)
Cooling Degree Days 4    
Growing Degree Days 20 (Base 50)    
Moisture  
Dew Point 54 °F    
Average Humidity 65    
Maximum Humidity 88    
Minimum Humidity 35    
Precipitation  
Precipitation 0.00 in - - ()
Sea Level Pressure  
Sea Level Pressure 30.18 in    
Wind  
Wind Speed 3 mph (ENE)    
Max Wind Speed 12 mph    
Max Gust Speed 16 mph    
Visibility 10 miles    
Events      
Averages and records for this station are not official NWS values.
T = Trace of Precipitation, MM = Missing Value Source: NWS Daily Summary

Daily Weather History Graph

Daily Weather History Graph

Search for Another Location

Airport or City:

Trip Planner

Search our weather history database for the weather conditions in past years. The results will help you decide how hot, cold, wet, or windy it might be!

Date:

Astronomy

Oct. 06, 2011 Rise Set
Actual Time 7:31 AM EDT 7:14 PM EDT
Civil Twilight 7:07 AM EDT 7:38 PM EDT
Nautical Twilight 6:39 AM EDT 8:06 PM EDT
Astronomical Twilight 6:11 AM EDT 8:34 PM EDT
Moon 4:10 PM EDT (10/6) 2:38 AM EDT (10/6)
Length of Visible Light 12h 31m
Length of Day
11h 42m
Waxing Gibbous, 75% of the Moon is Illuminated
Oct 6
Waxing Gibbous
Oct 11
Full
Oct 19
Last Quarter
Oct 26
New
Nov 2
First Quarter

Hourly Weather History & Observations

Time (EDT) Temp. Heat Index Dew Point Humidity Pressure Visibility Wind Dir Wind Speed Gust Speed Precip Events Conditions
12:15 AM 62.6 °F - 53.6 °F 72% 30.18 in 10.0 mi Calm Calm - N/A   Clear
12:35 AM 62.6 °F - 53.6 °F 72% 30.17 in 10.0 mi East 3.5 mph - N/A   Clear
12:55 AM 60.8 °F - 53.6 °F 77% 30.17 in 10.0 mi Calm Calm - N/A   Clear
1:15 AM 60.8 °F - 53.6 °F 77% 30.16 in 10.0 mi Calm Calm - N/A   Clear
1:35 AM 60.8 °F - 53.6 °F 77% 30.16 in 10.0 mi Calm Calm - N/A   Clear
1:55 AM 59.0 °F - 53.6 °F 82% 30.17 in 10.0 mi Calm Calm - N/A   Clear
2:15 AM 59.0 °F - 53.6 °F 82% 30.17 in 10.0 mi Calm Calm - N/A   Clear
2:35 AM 60.8 °F - 55.4 °F 82% 30.16 in 10.0 mi Calm Calm - N/A   Clear
2:55 AM 60.8 °F - 55.4 °F 82% 30.16 in 10.0 mi Calm Calm - N/A   Clear
3:15 AM 60.8 °F - 55.4 °F 82% 30.16 in 10.0 mi Calm Calm - N/A   Clear
3:35 AM 59.0 °F - 55.4 °F 88% 30.16 in 10.0 mi Calm Calm - N/A   Clear
3:55 AM 59.0 °F - 53.6 °F 82% 30.16 in 10.0 mi Calm Calm - N/A   Clear
4:15 AM 59.0 °F - 55.4 °F 88% 30.16 in 10.0 mi Calm Calm - N/A   Clear
4:35 AM 59.0 °F - 55.4 °F 88% 30.16 in 10.0 mi Calm Calm - N/A   Clear
4:55 AM 57.2 °F - 53.6 °F 88% 30.16 in 10.0 mi Calm Calm - N/A   Clear
5:15 AM 59.0 °F - 55.4 °F 88% 30.16 in 10.0 mi Calm Calm - N/A   Clear
5:35 AM 59.0 °F - 55.4 °F 88% 30.17 in 10.0 mi Calm Calm - N/A   Clear
5:55 AM 59.0 °F - 55.4 °F 88% 30.17 in 10.0 mi NE 3.5 mph - N/A   Clear
6:15 AM 59.0 °F - 55.4 °F 88% 30.18 in 10.0 mi NE 3.5 mph - N/A   Clear
6:35 AM 59.0 °F - 55.4 °F 88% 30.18 in 10.0 mi NNE 3.5 mph - N/A   Clear
6:55 AM 59.0 °F - 55.4 °F 88% 30.18 in 10.0 mi NE 3.5 mph - N/A   Clear
7:15 AM 59.0 °F - 55.4 °F 88% 30.19 in 10.0 mi NE 4.6 mph - N/A   Clear
7:35 AM 59.0 °F - 55.4 °F 88% 30.20 in 10.0 mi NE 4.6 mph - N/A   Clear
7:55 AM 59.0 °F - 55.4 °F 88% 30.20 in 10.0 mi NE 4.6 mph - N/A   Clear
8:15 AM 60.8 °F - 55.4 °F 82% 30.21 in 10.0 mi NE 4.6 mph - N/A   Clear
8:35 AM 60.8 °F - 55.4 °F 82% 30.21 in 10.0 mi NE 5.8 mph - N/A   Clear
8:55 AM 62.6 °F - 55.4 °F 77% 30.21 in 10.0 mi NE 6.9 mph - N/A   Clear
9:15 AM 64.4 °F - 55.4 °F 73% 30.22 in 10.0 mi ENE 3.5 mph - N/A   Clear
9:55 AM 68.0 °F - 57.2 °F 68% 30.23 in 10.0 mi ENE 5.8 mph - N/A   Clear
10:15 AM 69.8 °F - 57.2 °F 64% 30.23 in 10.0 mi ENE 6.9 mph - N/A   Clear
10:35 AM 71.6 °F - 57.2 °F 60% 30.23 in 10.0 mi ENE 6.9 mph - N/A   Clear
10:55 AM 73.4 °F - 57.2 °F 57% 30.23 in 10.0 mi East 11.5 mph 16.1 mph N/A   Clear
11:15 AM 73.4 °F - 57.2 °F 57% 30.22 in 10.0 mi East 9.2 mph 16.1 mph N/A   Clear
11:35 AM 75.2 °F - 57.2 °F 53% 30.22 in 10.0 mi NE 9.2 mph - N/A   Clear
11:55 AM 77.0 °F - 55.4 °F 47% 30.22 in 10.0 mi East 6.9 mph - N/A   Clear
12:15 PM 77.0 °F - 55.4 °F 47% 30.22 in 10.0 mi ENE 6.9 mph - N/A   Clear
12:35 PM 78.8 °F - 53.6 °F 42% 30.21 in 10.0 mi ENE 9.2 mph - N/A   Clear
12:55 PM 78.8 °F - 53.6 °F 42% 30.21 in 10.0 mi East 5.8 mph 16.1 mph N/A   Clear
1:15 PM 78.8 °F - 53.6 °F 42% 30.20 in 10.0 mi NE 9.2 mph - N/A   Clear
1:35 PM 80.6 °F 80.3 °F 53.6 °F 39% 30.19 in 10.0 mi East 8.1 mph - N/A   Clear
1:55 PM 80.6 °F 80.3 °F 53.6 °F 39% 30.18 in 10.0 mi East 8.1 mph - N/A   Clear
2:15 PM 80.6 °F 80.3 °F 53.6 °F 39% 30.18 in 10.0 mi East 8.1 mph - N/A   Clear
2:35 PM 80.6 °F - 51.8 °F 37% 30.17 in 10.0 mi ENE 9.2 mph 16.1 mph N/A   Clear
2:55 PM 82.4 °F 81.4 °F 53.6 °F 37% 30.16 in 10.0 mi ENE 8.1 mph - N/A   Clear
3:15 PM 82.4 °F - 51.8 °F 35% 30.16 in 10.0 mi ENE 9.2 mph - N/A   Clear
3:35 PM 82.4 °F - 51.8 °F 35% 30.15 in 10.0 mi NE 11.5 mph 16.1 mph N/A   Clear
3:55 PM 82.4 °F - 51.8 °F 35% 30.15 in 10.0 mi East 6.9 mph - N/A   Clear
4:15 PM 82.4 °F - 51.8 °F 35% 30.15 in 10.0 mi East 8.1 mph - N/A   Clear
4:35 PM 82.4 °F - 51.8 °F 35% 30.15 in 10.0 mi East 8.1 mph - N/A   Clear
4:55 PM 82.4 °F - 51.8 °F 35% 30.14 in 10.0 mi ESE 10.4 mph - N/A   Clear
5:15 PM 82.4 °F - 51.8 °F 35% 30.15 in 10.0 mi ENE 8.1 mph - N/A   Clear
5:35 PM 82.4 °F - 51.8 °F 35% 30.15 in 10.0 mi East 5.8 mph - N/A   Clear
5:55 PM 80.6 °F - 51.8 °F 37% 30.15 in 10.0 mi NE 4.6 mph - N/A   Clear
6:15 PM 80.6 °F - 51.8 °F 37% 30.15 in 10.0 mi East 6.9 mph - N/A   Clear
6:35 PM 80.6 °F 80.3 °F 53.6 °F 39% 30.15 in 10.0 mi ENE 5.8 mph - N/A   Clear
6:55 PM 78.8 °F - 53.6 °F 42% 30.16 in 10.0 mi Calm Calm - N/A   Clear
7:15 PM 77.0 °F - 53.6 °F 44% 30.16 in 10.0 mi Calm Calm - N/A   Clear
7:35 PM 77.0 °F - 55.4 °F 47% 30.17 in 10.0 mi Calm Calm - N/A   Clear
7:55 PM 73.4 °F - 55.4 °F 53% 30.17 in 10.0 mi Calm Calm - N/A   Clear
8:15 PM 73.4 °F - 55.4 °F 53% 30.18 in 10.0 mi Calm Calm - N/A   Clear
8:35 PM 73.4 °F - 55.4 °F 53% 30.18 in 10.0 mi Calm Calm - N/A   Clear
8:55 PM 73.4 °F - 55.4 °F 53% 30.19 in 10.0 mi Calm Calm - N/A   Clear
9:35 PM 71.6 °F - 55.4 °F 57% 30.20 in 10.0 mi Calm Calm - N/A   Clear
9:55 PM 71.6 °F - 57.2 °F 60% 30.21 in 10.0 mi Calm Calm - N/A   Clear
10:15 PM 69.8 °F - 57.2 °F 64% 30.21 in 10.0 mi Calm Calm - N/A   Clear
10:35 PM 69.8 °F - 59.0 °F 68% 30.22 in 10.0 mi East 3.5 mph - N/A   Clear
10:55 PM 69.8 °F - 59.0 °F 68% 30.22 in 10.0 mi Calm Calm - N/A   Clear
11:15 PM 69.8 °F - 59.0 °F 68% 30.23 in 10.0 mi Calm Calm - N/A   Clear
11:35 PM 68.0 °F - 59.0 °F 73% 30.23 in 10.0 mi ENE 3.5 mph - N/A   Clear
11:55 PM 68.0 °F - 59.0 °F 73% 30.23 in 10.0 mi ENE 3.5 mph - N/A   Clear